Время (UTC), дата Ветер
(°,м/с) 
Видим.   Явления Облачность Т
(°С)
Тd
(°С)
f(%) Тe
(°С)
Pmin
(гПа)
dP
(гПа)
Po
(мм)
O2
(г/м3)
Тmin Tmax R s Состояние
почвы
00 01.08.11 260 (З) 10 км    4/0 верхняя 
[Ci fib]
+22.6 +17.6 73 +36  1004.6  0.1  747  274           
03 01.08.11 220 (ЮЗ) 10 км    3/0 верхняя 
[Ci fib]
+21.6 +18.5 83 +37  1005.7  748  275           
06 01.08.11 260 (З) 10 км    4/4 600 м 
[Cu med, cong]
+26 +17.3 59 +39  1006.4  0.8  748  272  +21.4         
09 01.08.11 270 (З) 10 км    4/4 1000 м 
[Cu med, cong]
+28.1 +14.1 42 +35  1006.9  0.6  749  271           
12 01.08.11 290 (З) 10 км    4/4 1000 м 
[Cu med, cong]
+29 +15.1 43 +38  1006.6  -0.3  749  270           
15 01.08.11 260 (З) 10 км    3/3 1000 м 
[Cu med, cong]
+28.1 +15.2 45 +37  1006.6  749  270           
18 01.08.11 280 (З) 10 км    ясно 
+25.4 +18.3 65 +40  1007.7  749  272    +29.1       
21 01.08.11 290 (З) 10 км    ясно 
+24 +18.9 73 +40  1008.1  0.4  750  273           
00 02.08.11 270 (З) 10 км    ясно 
+21.4 +19.4 88 +39  1008.4  0.2  750  276           
03 02.08.11 тихо ()   4000 м  дымка  ясно 
+21.1 +19.1 88 +38  1008.5  0.1  750  276           
06 02.08.11 180 (Ю) 10 км    ясно 
+26.9 +18.6 60 +42  1008.4  0.1  750  271  +19.7         
09 02.08.11 210 (ЮЗ) 10 км    4/4 1000 м 
[Cu med, cong]
+30.3 +13.6 36 +37  1007.6  -0.8  749  269           
12 02.08.11 240 (ЮЗ) 10 км    3/3 1000 м 
[Cu med, cong]
+32.1 +11.3 28 +35  1006.5  -1  749  268           
18 02.08.11 280 (З) 10 км    5/0 средняя 
[Ac trans]
+26.2 +14.4 48 +34  1006.5  0.1  749  272    +32.5       
21 02.08.11 300 (СЗ) 10 км    8/0 средняя, верхняя 
[Ac trans|Ci fib]
+24.4 +18.2 68 +39  1005.6  -0.9  748  272           
00 03.08.11 тихо ()   10 км    8/0 средняя 
[Ac trans]
+21.4 +17.9 80 +36  1005.9  0.2  748  275           
03 03.08.11 тихо ()   10 км    9/0 средняя 
[Ac trans]
+21.2 +18.9 87 +38  1005.5  -0.4  748  275           
06 03.08.11 220 (ЮЗ) 10 км    6/0 средняя, верхняя 
[Ac trans|Ci fib]
+26.3 +19.3 65 +43  1006.1  0.8  748  270  +20.9         
09 03.08.11 290 (З) 10 км  гроза без осадков  8/4 1000 м кучево-дожд., средняя, верхняя 
[Cb cap|Ac trans|Ci fib]
+26.7 +17.2 56 +39  1006.4  0.3  749  271           
12 03.08.11 тихо ()   10 км  гроза без осадков  8/4 1000 м кучево-дожд., средняя 
[Cb cap|Ac trans]
+28.3 +15.9 47 +39  1006.5  0.1  749  270           
15 03.08.11 340 (С) 10 км  {гроза}  6/3 1000 м кучево-дожд., верхняя 
[Cb calv|Ci fib]
+25.5 +16.3 57 +37  1007.3  0.7  749  273           
18 03.08.11 330 (СЗ) 10 км  {гроза}  8/3 1000 м кучево-дожд., средняя, верхняя 
[Cb calv|Ac trans|Ci fib]
+23 +16.3 66 +34  1008.8  1.4  750  275    +29.9       
21 03.08.11 340 (С) 10 км    4/0 средняя, верхняя 
[Ac trans|Ci fib]
+19.8 +15.4 76 +30  1009.8  0.9  751  279           
00 04.08.11 330 (СЗ) 10 км    4/0 средняя, верхняя 
[Ac trans|Ci fib]
+17.5 +13.6 78 +24  1009.8  751  282           
03 04.08.11 310 (СЗ) 10 км    3/0 средняя, верхняя 
[Ac trans|Ci fib]
+17.1 +13.2 78 +24  1010.8  0.9  752  282           
06 04.08.11 300 (СЗ) 10 км    ясно 
+20.9 +11.4 55 +24  1011.3  0.6  752  279  +16.9         
09 04.08.11 260 (З) 10 км    ясно 
+23.9 +6.6 33 +24  1011.1  -0.1  752  278           
12 04.08.11 280 (З) 10 км    3/3 1000 м 
[Cu hum]
+26 +7.8 31 +26  1010.2  -0.8  751  275           
15 04.08.11 230 (ЮЗ) 10 км    3/1 1000 м 
[Cu hum]
+24.9 +6.8 31 +25  1009.7  -0.5  751  276           
18 04.08.11 320 (СЗ) 10 км    5/1 1000 м кучево-дожд., средняя 
[Cb calv|Ac trans]
+18.5 +11.5 64 +22  1011  1.1  752  282    +26.2       
21 04.08.11 тихо ()   10 км    3/0 средняя 
[Ac trans]
+16.7 +12.2 75 +21  1010.7  -0.3  751  283           
00 05.08.11 тихо ()   10 км    4/0 средняя 
[Ac trans]
+15.4 +11.8 79 +19  1010.2  -0.5  751  284           
03 05.08.11 250 (З) 10 км    4/0 средняя 
[Ac trans]
+15.4 +13.3 87 +23  1010.8  0.6  752  284           
06 05.08.11 300 (СЗ) 10 км    ясно 
+21.2 +9.9 48 +22  1010.9  0.2  752  279  +15         
09 05.08.11 270 (З) 10 км    6/6 1200 м 
[Cu med, cong]
+23.8 +8.4 37 +24  1010.3  -0.5  751  277           
12 05.08.11 260 (З) 10 км    5/5 1200 м 
[Cu med, cong]
+24.3 +7.7 35 +24  1010.2  -0.1  751  277           
15 05.08.11 310 (СЗ) 10 км    6/6 1200 м 
[Cu med, cong]
+22.1 +9.2 44 +22  1010.9  0.7  752  279           
18 05.08.11 300 (СЗ) 10 км    5/0 средняя 
[Ac trans]
+19.8 +9.6 52 +22  1012.1  1.1  753  281    +24.8       
21 05.08.11 310 (СЗ) 10 км    4/0 средняя 
[Ac trans]
+16.7 +10.8 68 +20  1012.7  0.5  753  284           
00 06.08.11 310 (СЗ) 10 км    4/0 средняя 
[Ac trans]
+15.5 +10 70 +17  1013.1  0.4  753  285           
03 06.08.11 330 (СЗ) 10 км    3/0 средняя 
[Ac trans]
+14.6 +10.6 77 +16  1013.5  0.3  753  286           
06 06.08.11 350 (С) 10 км    1/1 600 м 
[Cu hum]
+19.4 +11.3 59 +23  1014.4  1.1  754  282  +14.6         
09 06.08.11 010 (С) 10 км    6/6 1200 м 
[Cu med, cong]
+23 +9.6 43 +24  1014.7  0.4  755  279           
12 06.08.11 350 (С) 10 км    6/6 1200 м 
[Cu med, cong]
+24.8 +9.2 37 +25  1014.5  -0.2  754  277           
15 06.08.11 030 (СВ) 10 км    6/3 1000 м 
[Cu med, cong]
+24.4 +8.8 37 +24  1014.5  754  278           
18 06.08.11 тихо ()   10 км    5/0 средняя 
[Ac trans]
+17.7 +10.3 62 +19  1015.5  0.8  755  284    +25.5       
21 06.08.11 тихо ()   10 км    4/0 средняя 
[Ac trans]
+16.7 +10.4 66 +18  1015.6  0.1  755  285           
00 07.08.11 120 (ЮВ) 10 км    ясно 
+15 +8.4 65 +16  1015.5  -0.2  755  287           
03 07.08.11 070 (В) 10 км    6/0 средняя 
[Ac trans]
+14.9 +8.5 66 +15  1016  0.5  755  287           
06 07.08.11 080 (В) 10 км    5/0 средняя 
[Ac trans]
+23.4 +8.2 38 +23  1016.4  0.7  756  279  +14         
09 07.08.11 090 (В) 10 км    8/6 1200 м средняя 
[Cu hum|Ac trans]
+26.5 +6.2 27 +27  1016  -0.4  756  277           
12 07.08.11 090 (В) 10 км    8/6 1200 м средняя 
[Cu hum|Ac trans]
+28.5 +5.6 23 +29  1015  -0.9  755  275           
15 07.08.11 080 (В) 10 км    3/3 1000 м 
[Cu hum]
+27.6 +6.3 26 +28  1014.7  -0.3  755  275           
18 07.08.11 030 (СВ) 10 км    3/0 средняя 
[Ac trans]
+23.5 +6.8 34 +24  1015.4  0.6  755  279    +28.5       
21 07.08.11 060 (СВ) 10 км    4/0 средняя 
[Ac trans]
+20.2 +7.5 44 +20  1015.6  0.1  755  282           
00 08.08.11 040 (СВ) 10 км    4/0 средняя 
[Ac trans]
+19 +7.9 48 +20  1015.9  0.2  755  283           
03 08.08.11 060 (СВ) 10 км    5/0 средняя 
[Ac trans]
+19.1 +9 52 +20  1016.7  0.8  756  283           
06 08.08.11 070 (В) 10 км    4/0 средняя 
[Ac trans]
+26 +8.8 34 +26  1016.9  0.4  756  277  +16.8         
09 08.08.11 100 (В) 10 км    4/4 1000 м 
[Cu hum]
+30.2 +6.1 22 +30  1016.4  -0.4  756  273           
12 08.08.11 100 (В) 10 км    3/3 1000 м 
[Cu med, cong]
+31.8 +4.1 17 +32  1015.1  -1.2  755  272           
15 08.08.11 080 (В) 10 км    3/0 средняя 
[Ac trans]
+30.6 +5.3 20 +31  1014.9  -0.2  755  273           
18 08.08.11 090 (В) 10 км    1/0 средняя 
[Ac trans]
+24 +6.3 32 +24  1015.9  0.8  755  279    +32.1       
21 08.08.11 060 (СВ) 10 км    ясно 
+22.1 +6 35 +22  1016  755  281           
00 09.08.11 060 (СВ) 10 км    ясно 
+21.1 +7.9 43 +21  1016.3  0.3  756  281           
03 09.08.11 080 (В) 10 км    1/0 средняя 
[Ac trans]
+20 +8.6 48 +20  1016.5  0.2  756  282           
06 09.08.11 080 (В) 10 км    ясно 
+25.1 +9.3 37 +25  1016.9  0.5  756  277  +18.1         
09 09.08.11 100 (В) 10 км    1/1 1000 м 
[Cu med, cong]
+31.4 +5.4 19 +31  1015.7  -1  755  272           
12 09.08.11 070 (В) 10 км    ясно 
+32.7 +2.5 15 +33  1014.1  -1.6  754  271           
15 09.08.11 090 (В) 10 км    ясно 
+31.2 +5.2 19 +31  1013.2  -0.9  754  272           
18 09.08.11 070 (В) 10 км    ясно 
+24.3 +6.1 31 +24  1013.9  0.5  754  278    +33       
21 09.08.11 070 (В) 10 км    ясно 
+22.1 +6.8 37 +22  1013.9  -0.1  754  280           
00 10.08.11 070 (В) 10 км    ясно 
+18.7 +7.6 48 +19  1013.9  -0.1  754  283           
03 10.08.11 060 (СВ) 10 км    ясно 
+18.6 +9.6 56 +20  1013.8  -0.1  754  283           
06 10.08.11 080 (В) 10 км    ясно 
+25.9 +13.1 45 +31  1014.2  0.7  754  275  +16.8         
09 10.08.11 130 (ЮВ) 10 км    ясно 
+31.2 +6.3 21 +31  1012.8  -1.3  753  271           
12 10.08.11 120 (ЮВ) 10 км    ясно 
+32.4 +6.5 20 +32  1011.4  -1.4  752  270           
15 10.08.11 110 (В) 10 км    ясно 
+31.2 +7.3 22 +31  1010.1  -1.3  751  271           
18 10.08.11 090 (В) 10 км    ясно 
+24.8 +9.3 37 +25  1011  0.7  752  276    +32.8       
21 10.08.11 090 (В) 10 км    ясно 
+23 +8.8 40 +23  1010.9  -0.1  752  278           
00 11.08.11 080 (В) 10 км    ясно 
+20.9 +9.6 48 +22  1010.2  -0.7  751  279           
03 11.08.11 070 (В) 10 км    ясно 
+19.6 +8.3 48 +20  1010.3  0.1  751  281           
06 11.08.11 080 (В) 10 км    ясно 
+25.8 +10.8 39 +28  1009.5  -0.6  751  274  +18.9         
09 11.08.11 090 (В) 11  10 км    ясно 
+32.1 +8.1 23 +32  1007.6  -1.7  749  269           
12 11.08.11 110 (В) 10 км    ясно 
+34.2 +6.6 18 +34  1005.8  -1.8  748  267           
15 11.08.11 090 (В) 10 км    ясно 
+32.9 +5.7 18 +33  1004.7  -1.1  747  268           
18 11.08.11 090 (В) 10 км    ясно 
+28.5 +5.8 24 +29  1005.5  0.7  748  272    +34.8       
21 11.08.11 060 (СВ) 10 км    ясно 
+23.2 +6.6 34 +23  1006.6  0.9  749  277           
00 12.08.11 070 (В) 10 км    3/0 средняя 
[Ac trans]
+20 +8 46 +20  1006.8  0.1  749  280           
03 12.08.11 070 (В) 10 км    3/0 верхняя 
[Ci fib]
+20 +6.1 40 +20  1007.1  0.3  749  280           
06 12.08.11 080 (В) 10 км    4/0 верхняя 
[Ci fib]
+25.2 +10.5 40 +27  1006.6  -0.3  749  274  +19.9         
09 12.08.11 110 (В) 10 км    8/0 верхняя 
[Ci]
+32.1 +6.3 20 +32  1005.4  -1  748  269           
12 12.08.11 100 (В) 10 км    8/0 верхняя 
[Ci fib]
+33.5 +3.7 15 +34  1004.1  -1.3  747  268           
15 12.08.11 090 (В) 10 км    9/0 верхняя 
[Ci]
+31.7 +4.9 19 +32  1003.5  -0.6  746  269           
18 12.08.11 060 (СВ) 10 км    8/0 средняя, верхняя 
[Ac trans|Ci fib]
+26.1 +5.3 26 +26  1004.2  0.5  747  274    +34       
21 12.08.11 080 (В) 10 км    4/0 средняя, верхняя 
[Ac trans|Ci fib]
+25.6 +5.2 27 +26  1004.1  -0.1  747  274           
00 13.08.11 080 (В) 10 км    5/0 верхняя 
[Ci fib]
+22.7 +5.7 33 +23  1004.1  -0.1  747  277           
03 13.08.11 070 (В) 10 км    6/0 верхняя 
[Ci fib]
+22.1 +5.4 34 +22  1004.6  0.5  747  278           
06 13.08.11 070 (В) 10 км    8/0 верхняя 
[Ci fib]
+26.2 +8.5 33 +26  1005  0.5  747  273  +21.2         
09 13.08.11 110 (В) 10 км    6/0 верхняя 
[Ci fib]
+32.6 +3.9 16 +33  1004.4  -0.4  747  268           
12 13.08.11 100 (В) 10 км    5/0 верхняя 
[Ci fib]
+34.6 +3.3 14 +35  1003.3  -1  746  266           
15 13.08.11 040 (СВ) 10 км    8/0 средняя, верхняя 
[Ac trans|Ci fib]
+32.6 +6 19 +33  1002.4  -1  746  267           
18 13.08.11 360 (С) 10 км    8/0 средняя 
[Ac trans]
+29.6 +5.4 22 +30  1002.6  0.1  746  270    +34.6       
21 13.08.11 240 (ЮЗ) 10 км    9/0 средняя 
[Ac trans]
+26.8 +7 28 +27  1003.2  0.6  746  273           
00 14.08.11 350 (С) 10 км  {ливн. осадки}  10/4 1000 м кучево-дожд., средняя 
[Cb calv|Ac und]
+25.5 +9 35 +26  1003.1  0.5  746  273           
03 14.08.11 тихо ()   10 км    9/1 1000 м кучево-дожд., средняя 
[Cb calv|Ac trans]
+24.5 +11.8 45 +28  1005.2  2.1  748  274           
06 14.08.11 340 (С) 10 км  слаб. ливневой дождь  9/4 1000 м кучево-дожд., средняя 
[Cb calv|Ac trans]
+24.2 +14.8 56 +33  1004.4  -0.8  747  273  +23    0.0     
09 14.08.11 170 (Ю) 10 км  {ливн. осадки}  9/1 1000 м кучево-дожд., средняя 
[Cb calv|Ac trans]
+29.6 +13.9 38 +36  1006.1  1.8  748  269           
12 14.08.11 100 (В) 10 км  {ливн. осадки}  9/4 1000 м кучево-дожд., средняя 
[Cb calv|Ac trans]
+28.4 +14.8 43 +37  1006.4  0.3  749  270           
15 14.08.11 тихо ()   10 км    9/4 1000 м кучево-дожд., средняя 
[Cb calv|Ac trans]
+28.8 +15.7 45 +39  1006.9  0.5  749  270           
18 14.08.11 300 (СЗ) 10 км  гроза без осадков{ливн. осадки}  10/4 1000 м кучево-дожд., средняя 
[Cb cap|Ac und]
+22.6 +17.6 73 +36  1008.9  1.8  750  275    +29.6  0.0     
21 14.08.11 230 (ЮЗ) 10 км  {гроза}  9/4 1000 м кучево-дожд., средняя 
[Cb cap|Ac und]
+21 +18.2 84 +36  1008.5  -0.4  750  276           
00 15.08.11 тихо ()   10 км  слаб. ливневой дождь{гроза}  10/3 1000 м кучево-дожд., средняя 
[Cb calv|Ac und]
+21.9 +19.4 86 +39  1009.5  751  275           
03 15.08.11 240 (ЮЗ) 4000 м  дымка{ливн. осадки}  8/0 средняя 
[Ac trans]
+20.3 +18.7 91 +36  1009.4  -0.1  751  277           
06 15.08.11 250 (З) 10 км  {ливн. осадки}  6/0 средняя, верхняя 
[Ac trans|Ci fib]
+25.6 +18.1 63 +40  1010.1  0.8  751  273  +19.6    0.0     
09 15.08.11 260 (З) 10 км    5/3 1000 м средняя, верхняя 
[Cu med, cong|Ac trans|Ci fib]
+30 +15.2 41 +39  1009.8  1.4  751  270           
12 15.08.11 220 (ЮЗ) 10 км    5/5 1200 м 
[Cu med, cong]
+31.7 +13.7 33 +38  1009.4  -0.3  751  268           
15 15.08.11 290 (З) 10 км    8/6 1200 м кучево-дожд., средняя, верхняя 
[Cb calv|Ac trans|Ci fib]
+29 +16.5 47 +40  1009.1  -0.4  751  270           
18 15.08.11 270 (З) 10 км  в посл. час ливневой дождь  8/5 1200 м кучево-дожд., средняя, верхняя 
[Cb calv|Ac trans|Ci fib]
+24.4 +19.5 74 +42  1010.6  1.4  752  273    +31.8       
21 15.08.11 280 (З) 10 км    5/0 средняя, верхняя 
[Ac trans|Ci fib]
+22.4 +19.8 85 +41  1010.7  752  275           
00 16.08.11 300 (СЗ) 4000 м  туман поземный  5/0 средняя, верхняя 
[Ac trans|Ci fib]
+21.3 +19.4 89 +39  1010.8  0.1  752  276           
03 16.08.11 тихо ()   3000 м  местами туман поземный  5/0 средняя, верхняя 
[Ac trans|Ci fib]
+19.7 +18.5 93 +35  1010.7  -0.2  752  278           
06 16.08.11 тихо ()   10 км  {туман}  3/0 средняя 
[Ac trans]
+26 +19.8 69 +44  1010.5  752  272  +19.2    0.8     
09 16.08.11 230 (ЮЗ) 10 км    8/4 1000 м средняя, верхняя 
[Cu med, cong|Ac trans|Ci fib]
+29.3 +16.8 47 +41  1009.6  -0.8  751  270           
12 16.08.11 250 (З) 10 км  гроза без осадков  9/5 1200 м кучево-дожд., средняя, верхняя 
[Cb cap|Ac trans|Ci fib]
+28.1 +16.5 49 +39  1008.8  -0.8  750  271           
15 16.08.11 210 (ЮЗ) 10 км  {гроза, ливн. осадки}  9/4 1000 м кучево-дожд., средняя, верхняя 
[Cb calv|Ac trans|Ci fib]
+27.8 +15.5 47 +37  1008.7  -0.1  750  271           
18 16.08.11 290 (З) 10 км  {гроза, ливн. осадки}  5/0 средняя, верхняя 
[Ac trans|Ci fib]
+24.8 +15.3 56 +34  1009.2  0.4  751  274    +29.7  0.0     
21 16.08.11 290 (З) 10 км    5/0 средняя, верхняя 
[Ac trans|Ci fib]
+22.2 +16.2 69 +33  1009.9  0.6  751  276           
00 17.08.11 340 (С) 10 км    4/0 средняя, верхняя 
[Ac trans|Ci fib]
+20.7 +16.9 79 +33  1009.8  -0.1  751  278           
03 17.08.11 тихо ()   4000 м  местами туман поземный  4/0 средняя, верхняя 
[Ac trans|Ci fib]
+20.1 +18.1 88 +35  1009.4  -0.4  751  278           
06 17.08.11 210 (ЮЗ) 10 км    4/0 средняя, верхняя 
[Ac trans|Ci fib]
+25 +18.9 69 +41  1009.1  -0.2  750  273  +18.1         
09 17.08.11 210 (ЮЗ) 10 км    5/3 1200 м кучево-дожд. 
[Cb calv]
+26.8 +15.8 51 +37  1008.8  -0.3  750  272           
12 17.08.11 330 (СЗ) 1{15}  10 км  в посл. час гроза{ливн. осадки}  9/4 1000 м кучево-дожд., средняя 
[Cb calv|Ac trans]
+23.6 +17.7 69 +37  1008.8  750  274           
15 17.08.11 140 (ЮВ) 10 км    9/4 1000 м кучево-дожд., средняя 
[Cb calv|Ac trans]
+22.6 +16.7 69 +34  1008.6  -0.3  750  275           
18 17.08.11 130 (ЮВ) 10 км    8/1 1000 м кучево-дожд., средняя 
[Cb calv|Ac trans]
+20.8 +18.1 85 +35  1009.1  0.4  750  277    +28  12     
21 17.08.11 170 (Ю) 4000 м  дымка  8/0 средняя 
[Ac trans]
+19.7 +18.3 92 +36  1009.1  -0.1  750  278           
00 18.08.11 тихо ()   2000 м  дымка  3/0 средняя 
[Ac trans]
+19.1 +18 93 +33  1008.9  -0.2  750  278           
03 18.08.11 230 (ЮЗ) 4000 м  дымка  8/4 300 м средняя 
[Sc|Ac trans]
+18.9 +17.9 94 +34  1009  0.1  750  279           
06 18.08.11 200 (Ю) 4000 м  дымка  6/4 330 м верхняя 
[Sc|Ci fib]
+24 +20 78 +43  1009  0.2  750  273  +17.9         
09 18.08.11 300 (СЗ) 10 км  гроза без осадков  8/5 600 м кучево-дожд., верхняя 
[Cb cap|Ci fib]
+27.2 +18 57 +42  1008.5  -0.4  750  271           
12 18.08.11 360 (С) 10 км  гроза без осадков{ливн. осадки}  8/5 720 м кучево-дожд., верхняя 
[Cb cap|Ci sp]
+25.3 +18.3 65 +40  1008.5  -0.1  750  272           
15 18.08.11 140 (ЮВ) 10 км  в посл. час гроза{ливн. осадки}  9/6 240 м кучево-дожд., верхняя 
[Cb cap|Ci fib]
+21.2 +18.1 82 +36  1008.8  0.2  750  276           
18 18.08.11 220 (ЮЗ) 3000 м  гроза, ливневой дождь  10/8 180 м кучево-дожд., средняя, верхняя 
[Cb cap|Ac und|Ci fib]
+19.6 +18 90 +35  1010.6  1.7  751  278    +27.7  15     
21 18.08.11 320 (СЗ) 1500 м  дымка{гроза, ливн. осадки}  10/8 180 м кучево-дожд., средняя 
[Cb cap|Ac und]
+19.9 +18.6 92 +37  1010.4  -0.2  751  278           
00 19.08.11 320 (СЗ) 4000 м  дымка{гроза}  9/4 300 м средняя, верхняя 
[Sc diur, vesp|Ac trans|Ci fib]
+18.7 +17.1 90 +32  1010.3  -0.1  751  279           
03 19.08.11 320 (СЗ) 4000 м  дымка  9/5 300 м средняя 
[Sc|Ac trans]
+18.3 +16.4 89 +30  1011  0.7  752  280           
06 19.08.11 290 (З) 10 км    10/5 700 м средняя 
[Sc|Ac und]
+20.4 +16.9 80 +32  1011.3  0.3  752  278  +18.3       
09 19.08.11 270 (З) 10 км    9/5 800 м средняя 
[Cu med, cong|Ac trans]
+22.9 +16 65 +33  1011.4  0.2  752  276           
12 19.08.11 310 (СЗ) 10 км    9/5 700 м средняя 
[Cu med, cong|Ac trans]
+22.4 +16.4 69 +34  1010.9  -0.5  752  276           
15 19.08.11 290 (З) 10 км    9/4 600 м средняя 
[Sc diur, vesp|Ac trans]
+22.7 +16.4 68 +34  1011  0.1  752  276           
18 19.08.11 310 (СЗ) 10 км    9/0 средняя 
[Ac trans]
+21.8 +16.3 71 +33  1011.7  0.7  752  277    +23.1       
21 19.08.11 320 (СЗ) 10 км    9/0 средняя 
[Ac trans]
+20.2 +15.9 76 +30  1011.7  -0.1  752  279           
00 20.08.11 320 (СЗ) 10 км    8/0 средняя 
[Ac trans]
+18.2 +15.5 84 +28  1012.1  0.4  753  281           
03 20.08.11 310 (СЗ) 10 км    9/5 360 м средняя 
[Sc|Ac trans]
+17.9 +15.4 85 +27  1013.1  0.9  753  282           
06 20.08.11 320 (СЗ) 10 км    9/5 480 м средняя 
[Sc|Ac trans]
+20.5 +15.3 72 +30  1013.7  0.7  754  279  +17.5         
09 20.08.11 290 (З) 10 км    9/3 600 м кучево-дожд., средняя 
[Cb calv|Ac trans]
+23.3 +14.2 57 +30  1013.7  0.1  754  277           
12 20.08.11 340 (С) 10 км    9/4 600 м кучево-дожд., средняя 
[Cb calv|Ac trans]
+24.6 +13.7 51 +31  1013.4  -0.3  754  276           
15 20.08.11 340 (С) 10 км    8/4 1000 м средняя 
[Cu med, cong|Ac trans]
+25.1 +13.5 49 +31  1013.3  -0.1  754  275           
18 20.08.11 270 (З) 10 км    6/0 верхняя 
[Ci fib]
+21.6 +16.4 72 +33  1014.3  0.9  754  278    +25.5       
21 20.08.11 тихо ()   4000 м  дымка  ясно 
+19.5 +17 85 +32  1013.7  -0.6  754  280           
00 21.08.11 240 (ЮЗ) 10 км    ясно 
+18.2 +15.3 83 +28  1012.6  -1.1  753  281           
03 21.08.11 230 (ЮЗ) 10 км    8/0 средняя 
[Ac trans]
+18.4 +15.9 85 +29  1012.1  -0.5  753  281           
06 21.08.11 230 (ЮЗ) 10 км    9/3 600 м кучево-дожд., средняя 
[Cb calv|Ac trans]
+22.3 +17.6 75 +36  1011.4  -0.6  752  276  +17.6         
09 21.08.11 290 (З) 10 км    9/4 600 м кучево-дожд., средняя 
[Cb calv|Ac trans]
+24.9 +13.8 50 +32  1010.6  -0.7  752  275           
12 21.08.11 260 (З) 10 км    5/5 1000 м 
[Cu med, cong]
+26.7 +11.1 38 +29  1010.1  -0.5  751  274           
15 21.08.11 260 (З) 10 км    6/3 1000 м кучево-дожд., средняя 
[Cb calv|Ac trans]
+24.1 +14.3 54 +32  1010.6  0.4  752  275           
18 21.08.11 320 (СЗ) 10 км    9/0 средняя 
[Ac trans]
+22.4 +8.8 42 +22  1011.4  0.9  752  279    +27.1       
21 21.08.11 310 (СЗ) 10 км    9/0 средняя 
[Ac trans]
+20.2 +10.7 54 +22  1011.9  0.4  752  280           
00 22.08.11 310 (СЗ) 10 км    4/0 средняя 
[Ac trans]
+17 +11.2 69 +21  1012.2  0.2  753  283           
03 22.08.11 300 (СЗ) 10 км    3/0 средняя 
[Ac trans]
+15.6 +11.4 76 +19  1012.7  0.5  753  285           
06 22.08.11 260 (З) 10 км    1/1 600 м 
[Cu med, cong]
+19.3 +11.8 62 +24  1012.7  0.1  753  281  +15.6         
09 22.08.11 280 (З) 10 км    8/8 1000 м кучево-дожд. 
[Cb calv]
+21.6 +11.3 52 +24  1012.7  753  279           
12 22.08.11 290 (З) 10 км    8/4 1000 м средняя 
[Cu med, cong|Ac trans]
+22.2 +10.1 46 +23  1012.8  0.3  753  279           
15 22.08.11 300 (СЗ) 10 км    9/4 600 м средняя 
[Sc|Ac und]
+21.9 +9.8 46 +23  1013.6  0.7  754  279           
18 22.08.11 300 (СЗ) 10 км    4/0 средняя 
[Ac trans]
+19.8 +10.9 56 +23  1015.3  1.7  755  282    +22.7       
21 22.08.11 340 (С) 10 км    3/3 300 м 
[Sc]
+17.4 +12 71 +22  1015.7  0.3  755  284           
00 23.08.11 320 (СЗ) 10 км    1/1 300 м 
[Sc]
+15.9 +11.9 77 +21  1016.6  0.8  756  286           
03 23.08.11 310 (СЗ) 10 км    5/0 средняя 
[Ac trans]
+15.3 +11.7 79 +19  1017.8  1.2  757  287           
06 23.08.11 360 (С) 10 км    8/0 средняя, верхняя 
[Ac trans|Ci fib]
+20.1 +12.3 61 +24  1018.5  0.9  757  282  +14.4         
09 23.08.11 320 (СЗ) 10 км    9/4 1000 м средняя, верхняя 
[Cu med, cong|Ac trans|Ci fib]
+22.9 +11.4 48 +26  1018.2  -0.3  757  279           
12 23.08.11 270 (З) 10 км    9/5 1200 м кучево-дожд., средняя 
[Cb calv|Ac trans]
+24 +9.6 40 +24  1016.9  -1.2  756  278           
15 23.08.11 290 (З) 10 км    9/4 1000 м кучево-дожд., средняя 
[Cb calv|Ac trans]
+23.4 +12.3 50 +28  1016.5  -0.4  756  278           
18 23.08.11 270 (З) 10 км    9/0 средняя 
[Ac trans]
+20.3 +14.2 68 +27  1017.3  0.7  756  281    +25.5       
21 23.08.11 тихо ()   10 км    9/0 средняя 
[Ac trans]
+19.1 +14.7 76 +27  1016.8  -0.6  756  282           
00 24.08.11 330 (СЗ) 4000 м  дымка  9/0 средняя 
[Ac trans]
+19.1 +14.2 73 +27  1016.2  -0.6  756  282           
03 24.08.11 тихо ()   4000 м  дымка  9/4 600 м кучево-дожд., средняя 
[Cb calv|Ac trans]
+18 +16.2 89 +29  1015.7  -0.5  755  282           
06 24.08.11 040 (СВ) 10 км  гроза без осадков{ливн. осадки}  9/5 750 м кучево-дожд., средняя 
[Cb cap|Ac trans]
+18.1 +15.3 84 +27  1015.9  0.2  755  282  +15.6         
09 24.08.11 110 (В) 10 км  {гроза, ливн. осадки}  6/0 средняя 
[Ac trans]
+20.5 +16.1 76 +31  1014.9  -0.9  755  279           
12 24.08.11 180 (Ю) 10 км  в посл. час ливневой дождь{гроза}  8/3 1000 м кучево-дожд., средняя 
[Cb calv|Ac trans]
+22.8 +15 61 +31  1014.1  -0.7  754  277           
15 24.08.11 190 (Ю) 10 км    8/1 1000 м кучево-дожд., средняя 
[Cb calv|Ac trans]
+20.6 +15.3 72 +30  1013.6  -0.6  754  279           
18 24.08.11 тихо ()   10 км  в посл. час гроза{ливн. осадки}  9/5 240 м кучево-дожд., средняя 
[Cb calv|Ac trans]
+18.1 +15 82 +27  1014.5  0.8  754  282    +22.9  22     
21 24.08.11 080 (В) 4000 м  гроза без осадков{ливн. осадки}  6/4 1000 м кучево-дожд., средняя 
[Cb cap|Ac trans]
+16.1 +14.7 91 +24  1014.1  -0.4  754  284           
00 25.08.11 050 (СВ) 10 км  {гроза, ливн. осадки}  8/1 1000 м кучево-дожд., средняя 
[Cb calv|Ac trans]
+16.6 +14.7 89 +25  1013.9  -0.2  754  283           
03 25.08.11 090 (В) 10 км  слаб. ливневой дождь  10/5 800 м кучево-дожд., средняя 
[Cb calv|Ac trans]
+15.9 +14.2 90 +23  1015.3  1.4  755  285           
06 25.08.11 060 (СВ) 10 км  {ливн. осадки}  ясно 
+19.9 +13.7 67 +27  1016.3  1.1  756  281  +15.4    0.0     
09 25.08.11 080 (В) 10 км    8/8 1000 м 
[Cu med, cong]
+23.7 +13.5 53 +30  1017.1  0.9  756  278           
12 25.08.11 070 (В) 10 км    6/6 1200 м кучево-дожд. 
[Cb calv]
+23.1 +10.9 46 +25  1017.7  0.5  757  279           
15 25.08.11 090 (В) 10 км    3/3 1000 м 
[Cu med, cong]
+22.7 +11.3 49 +25  1018.7  758  280           
18 25.08.11 тихо ()   10 км    3/0 средняя 
[Ac trans]
+18.9 +10.8 59 +21  1020.4  1.6  759  284    +24.8       
21 25.08.11 040 (СВ) 10 км    4/0 средняя 
[Ac trans]
+17.6 +5.3 44 +18  1021.9  1.4  760  287           
00 26.08.11 050 (СВ) 10 км    3/0 средняя 
[Ac trans]
+14.2 +5.1 54 +14  1021.9  -0.1  760  290           
03 26.08.11 070 (В) 10 км    ясно 
+14.2 +5.3 55 +14  1023.1  1.2  761  291           
06 26.08.11 080 (В) 10 км    ясно 
+18.9 +9.1 53 +19  1024.5  1.6  762  286  +12.6         
09 26.08.11 100 (В) 10 км    ясно 
+23.3 +5.3 31 +23  1025.1  0.7  762  282           
12 26.08.11 100 (В) 10 км    ясно 
+24.3 +2.9 25 +24  1024.4  -0.7  762  281           
15 26.08.11 090 (В) 10 км    ясно 
+22.9 +2.7 27 +23  1023.7  -0.7  761  283           
18 26.08.11 070 (В) 10 км    ясно 
+15.6 +6.4 54 +16  1024.9  1.1  762  289    +24.5       
21 26.08.11 050 (СВ) 10 км    ясно 
+15.6 +4 46 +16  1025.3  0.4  762  290           
00 27.08.11 060 (СВ) 10 км    ясно 
+14.5 +3.9 49 +15  1025.1  -0.2  762  291           
03 27.08.11 060 (СВ) 10 км    5/0 средняя, верхняя 
[Ac trans|Ci fib]
+12.6 +4.2 57 +13  1025.1  -0.1  762  293           
06 27.08.11 080 (В) 10 км    1/0 верхняя 
[Ci fib]
+20.3 +6 39 +20  1025.6  0.8  763  285  +12         
09 27.08.11 100 (В) 10 км    ясно 
+24.2 +1.7 23 +24  1024.8  -0.7  762  282           
12 27.08.11 090 (В) 10 км    ясно 
+25.4 +1.3 21 +25  1023.6  -1.2  761  280           
15 27.08.11 100 (В) 10 км    ясно 
+23.9 +3.7 27 +24  1022.2  -1.4  760  281           
18 27.08.11 тихо ()   10 км    3/0 верхняя 
[Ci fib]
+16.8 +5.6 48 +17  1022.6  0.2  760  288    +25.6       
21 27.08.11 030 (СВ) 10 км    1/0 верхняя 
[Ci fib]
+16.8 +1.8 36 +18  1022.6  760  288           
00 28.08.11 050 (СВ) 10 км    1/0 верхняя 
[Ci fib]
+14.6 +3.3 47 +15  1022.6  -0.1  760  290           
03 28.08.11 060 (СВ) 10 км    1/0 верхняя 
[Ci fib]
+14.1 +3.8 50 +14  1022.9  0.3  760  291           
06 28.08.11 060 (СВ) 10 км    ясно 
+22.2 +8.1 40 +22  1023  0.4  761  282  +12         
09 28.08.11 090 (В) 10 км    ясно 
+25.9 +4.2 25 +26  1022.5  -0.4  760  279           
12 28.08.11 100 (В) 10 км    ясно 
+27.2 +4.7 24 +27  1021.3  -1.2  760  278           
15 28.08.11 120 (ЮВ) 10 км    ясно 
+26.1 +7.9 31 +26  1020.3  -1  759  278           
18 28.08.11 тихо ()   10 км    ясно 
+18.2 +9.3 56 +18  1021  0.5  759  285    +27.4       
21 28.08.11 010 (С) 10 км    ясно 
+16.8 +8 56 +18  1021  -0.1  759  287           
00 29.08.11 100 (В) 10 км    ясно 
+16.7 +9.1 61 +18  1020.4  -0.6  759  286           
03 29.08.11 070 (В) 10 км    1/0 верхняя 
[Ci fib]
+16.2 +9.8 66 +17  1020.5  0.1  759  287           
06 29.08.11 110 (В) 10 км    ясно 
+22.7 +10.9 47 +25  1020.5  0.2  759  280  +15.5         
09 29.08.11 100 (В) 10 км    1/1 1000 м 
[Cu hum]
+27.3 +10 34 +28  1019.3  -1.1  758  276           
12 29.08.11 120 (ЮВ) 10 км    ясно 
+28.7 +8.5 28 +29  1017.5  -1.7  757  275           
15 29.08.11 080 (В) 10 км    ясно 
+27.3 +9.4 32 +28  1016.2  -1.3  756  275           
18 29.08.11 060 (СВ) 10 км    ясно 
+20.8 +9.3 48 +21  1016.2  -0.2  756  281    +28.9       
21 29.08.11 080 (В) 10 км    ясно 
+21.1 +9.5 47 +21  1015.6  -0.6  755  281           
00 30.08.11 070 (В) 10 км    ясно 
+18.9 +7.6 48 +19  1014.9  -0.8  755  283           
03 30.08.11 070 (В) 10 км    ясно 
+16.9 +8 56 +17  1014.9  755  285           
06 30.08.11 080 (В) 10 км    ясно 
+22.9 +10.2 45 +24  1014.5  -0.2  754  279  +16.9         
09 30.08.11 090 (В) 10 км    ясно 
+29.2 +6.7 24 +29  1013.1  -1.3  753  273           
12 30.08.11 110 (В) 10{15}  10 км    ясно 
+30.8 +4.4 19 +31  1010.8  -2.2  752  272           
15 30.08.11 110 (В) 10 км    ясно 
+28 +4.3 22 +28  1009.9  -1  751  274           
18 30.08.11 100 (В) 10 км    ясно 
+23.2 +4.9 30 +23  1010.2  0.2  751  278    +31       
21 30.08.11 080 (В) 10 км    ясно 
+21.4 +7.7 41 +21  1009.9  -0.4  751  279           
00 31.08.11 070 (В) 10 км    ясно 
+17.9 +10.1 60 +19  1009.6  -0.4  751  282           
03 31.08.11 070 (В) 10 км    ясно 
+15.8 +12.6 81 +21  1010.2  0.5  751  284           
06 31.08.11 090 (В) 10 км    6/5 400 м средняя 
[Sc|Ac trans]
+20.7 +15.6 73 +30  1009.7  -0.3  751  278  +15.8         
09 31.08.11 110 (В) 10 км    8/5 700 м средняя 
[Sc|Ac trans]
+25.2 +15.6 55 +35  1008.7  -0.9  750  273           
12 31.08.11 090 (В) 10 км    5/1 1000 м средняя, верхняя 
[Cu hum|Ac trans|Ci fib]
+28.1 +16.2 48 +39  1007.8  -0.8  750  270           
15 31.08.11 100 (В) 10 км    9/0 средняя, верхняя 
[Ac trans|Ci fib]
+26.9 +16.5 53 +38  1007.4  -0.4  749  271           
18 31.08.11 080 (В) 10 км    8/0 средняя, верхняя 
[Ac trans|Ci fib]
+23.7 +16.4 64 +35  1008.2  0.7  750  274    +28.5       
21 31.08.11 тихо ()   10 км    9/0 средняя, верхняя 
[Ac trans|Ci fib]
+21.7 +16.1 70 +32  1008.3  750  276           
00 01.09.11 тихо ()   10 км    6/0 средняя, верхняя 
[Ac trans|Ci fib]
+20.9 +16.2 74 +32  1008.6  0.3  750  277           
03 01.09.11 тихо ()   4000 м  дымка  8/3 600 м кучево-дожд., средняя, верхняя 
[Cb calv|Ac trans|Ci fib]
+19.7 +17.6 88 +33  1008.9  0.2  750  278           
06 01.09.11 230 (ЮЗ) 10 км  в посл. час ливневой дождь  9/4 600 м кучево-дожд., средняя 
[Cb calv|Ac trans]
+21 +16.4 75 +32  1009.9  1.1  751  277  +18.8         
Время (UTC), дата Ветер
(°,м/с) 
Видим.   Явления Облачность Т
(°С)
Тd
(°С)
f(%) Тe
(°С)
Pmin
(гПа)
dP
(гПа)
Po
(мм)
O2
(г/м3)
Тmin Tmax R s Состояние
почвы